This demonstration page uses our WeatherBlox Daily Observations layout. Learn more.

39.92423, -83.80882

Hourly Observations for December 8, 2019

Temp ( °F °C ) Dew Point ( °F °C ) Humidity (%) Winds ( mph kmh ) Pressure ( in mb ) Visibility ( mi km ) Precip ( " mm )
12:56 am 00:56 Clear 28 -2.2 23 -5 81 81 SE 8 13 30.31 1026 10 16.0934 0 0
1:56 am 01:56 Clear 29 -1.7 24 -4.4 82 82 SE 9 15 30.28 1025 10 16.0934 0 0
2:56 am 02:56 Clear 29 -1.7 24 -4.4 82 82 SSE 7 11 30.27 1025 10 16.0934 0 0
3:56 am 03:56 Clear 28 -2.2 23 -5 81 81 SSE 8 13 30.24 1024 10 16.0934 0 0
4:56 am 04:56 Clear 25 -3.9 22 -5.6 88 88 ESE 6 9 30.24 1024 10 16.0934 0 0
5:56 am 05:56 Clear 28 -2.2 24 -4.4 85 85 S 6 9 30.23 1024 10 16.0934 0 0
6:56 am 06:56 Clear 28 -2.2 24 -4.4 85 85 S 12 19 30.21 1023 10 16.0934 0 0
7:56 am 07:56 Sunny 31 -0.6 28 -2.2 89 89 S 8 13 30.2 1023 10 16.0934 0 0
8:56 am 08:56 Sunny 34 1.1 31 -0.6 89 89 S 8 13 30.19 1023 10 16.0934 0 0
9:56 am 09:56 Partly Cloudy 39 3.9 35 1.7 86 86 S 12 19 30.19 1022 10 16.0934 0 0
10:56 am 10:56 Cloudy 43 6.1 37 2.8 80 80 SSW 13 20 30.17 1022 10 16.0934 0 0
11:56 am 11:56 Cloudy 45 7.2 39 3.9 80 80 SW 15 24 30.14 1021 10 16.0934 0 0
12:09 pm 12:09 Mostly Cloudy 46 8 39 4 76 76 SW 15 24 30.11 1020 10 16.0934 0 0
12:56 pm 12:56 Cloudy 49 9.4 40 4.4 71 71 SW 18 30 30.11 1020 10 16.0934 0 0
1:56 pm 13:56 Cloudy 50 10 41 5 71 71 SSW 16 26 30.06 1018 10 16.0934 0 0
2:56 pm 14:56 Mostly Cloudy 51 10.6 42 5.6 71 71 SSW 9 15 30.06 1018 10 16.0934 0 0
3:56 pm 15:56 Cloudy 51 10.6 42 5.6 71 71 SSW 9 15 30.06 1018 10 16.0934 0 0
4:56 pm 16:56 Mostly Sunny 50 10 42 5.6 74 74 S 8 13 30.05 1018 10 16.0934 0 0
5:56 pm 17:56 Cloudy 49 9.4 42 5.6 77 77 SSE 9 15 30.04 1017 10 16.0934 0 0
6:56 pm 18:56 Cloudy 49 9.4 42 5.6 77 77 S 8 13 30.05 1018 10 16.0934 0 0
7:56 pm 19:56 Partly Cloudy 48 8.9 43 6.1 83 83 S 8 13 30.03 1017 10 16.0934 0 0
8:56 pm 20:56 Mostly Clear 48 8.9 43 6.1 83 83 S 7 11 30.01 1016 10 16.0934 0 0
9:56 pm 21:56 Clear 49 9.4 42 5.6 77 77 S 7 11 29.99 1016 10 16.0934 0 0
10:56 pm 22:56 Partly Cloudy 50 10 42 5.6 74 74 S 6 9 29.97 1015 10 16.0934 0 0
11:56 pm 23:56 Mostly Clear 50 10 42 5.6 74 74 S 8 13 29.96 1015 10 16.0934 0 0

Powered by AerisWeather